EHI
7 4 1 0 0 0 0 0 0 0 0 0 0 0 0 0 0 0 0 0 1 1 1 2 4 5 4 1 0 0 1 2 3 2 1 1 2 1 0 0 0 0 0 0 0 0 0 0 0
6 2 0 0 0 0 0 0 0 0 0 0 0 0 0 0 0 0 0 1 2 2 1 1 3 4 3 2 1 0 0 1 2 1 1 2 3 2 0 0 0 0 0 0 0 0 0 0 0
3 1 0 0 0 0 0 0 0 0 0 0 0 0 0 0 0 0 0 2 3 3 2 1 3 3 2 2 1 0 0 0 0 0 1 2 2 1 0 0 0 0 0 0 0 0 0 0 0
1 0 0 0 0 0 0 0 0 0 0 0 0 0 0 0 0 0 1 3 4 3 2 1 3 3 2 1 1 0 0 0 0 0 0 1 1 0 0 0 0 0 0 0 0 0 0 0 0
0 0 0 0 0 0 0 0 0 0 0 0 0 0 0 0 0 1 2 4 4 3 1 1 3 4 2 1 1 0 0 0 0 0 0 0 0 0 0 0 0 0 0 0 0 0 0 0 0
0 0 0 0 0 0 0 0 0 0 0 0 0 0 0 0 0 0 1 2 3 3 1 1 2 2 2 2 2 1 0 0 0 0 0 0 0 0 0 0 0 0 0 0 0 0 0 0 0
0 0 0 0 0 0 0 0 0 0 0 0 0 0 0 0 0 0 1 2 3 2 1 0 1 1 0 1 2 1 1 0 0 0 0 0 0 0 0 0 0 0 0 0 0 0 0 0 0
0 0 0 0 0 0 0 0 0 0 0 0 0 0 0 0 0 0 1 3 2 1 0 0 0 0 0 0 1 1 1 0 0 0 0 0 0 0 0 0 0 0 0 0 0 0 0 0 0
0 0 0 0 0 0 0 0 0 0 0 0 0 0 1 1 0 0 0 1 1 0 0 0 0 0 0 0 0 1 1 0 0 0 0 0 0 0 0 0 0 0 0 0 0 0 0 0 0
0 0 0 0 0 0 0 0 0 0 0 0 1 2 3 2 0 0 0 0 0 0 1 1 0 0 0 0 0 0 0 0 0 0 0 0 0 0 0 0 0 0 0 0 0 0 0 0 0
0 0 0 0 0 0 0 0 0 0 0 1 3 6 5 2 1 0 0 0 0 1 2 2 1 0 0 0 0 0 0 0 0 0 0 0 0 0 0 0 0 0 0 0 0 0 0 0 0
0 0 0 0 0 0 0 0 0 0 0 1 5 7 6 3 2 1 0 0 0 1 4 4 2 1 0 0 0 0 0 0 0 0 0 0 0 0 0 0 0 0 0 0 0 0 0 0 0
0 0 0 0 0 0 0 0 0 0 0 1 4 6 5 4 3 2 1 0 1 2 4 5 4 2 1 0 0 0 0 0 0 0 0 0 0 0 0 0 0 0 0 0 0 0 0 0 0
0 0 0 0 1 0 0 0 0 0 0 2 3 4 3 3 3 3 1 1 2 3 4 6 5 3 1 0 0 0 0 0 0 0 0 0 0 0 0 0 0 0 0 0 0 0 0 0 0
0 0 0 0 0 0 0 0 0 0 0 1 3 3 1 1 2 2 2 1 2 2 3 5 5 2 0 0 0 0 0 0 0 0 0 0 0 0 0 1 0 0 0 0 0 0 0 0 0
0 0 0 0 0 0 0 0 0 0 0 1 2 2 1 0 1 1 2 1 1 1 3 5 4 1 0 0 0 0 0 0 0 0 0 0 0 0 0 0 0 0 0 0 0 0 0 0 0
0 0 0 0 0 0 0 0 0 0 0 0 1 1 1 1 0 1 2 2 0 0 2 5 4 2 0 0 0 0 0 0 0 0 0 0 0 0 0 0 0 0 0 0 0 0 0 0 0
0 0 0 0 0 0 0 0 0 0 0 0 0 0 1 1 1 1 2 1 0 0 2 4 4 2 1 0 0 0 0 0 0 0 0 0 0 0 0 0 0 0 0 0 0 0 0 0 0
0 0 0 0 0 0 0 0 0 0 0 0 0 0 0 0 1 2 2 1 0 0 1 3 4 3 1 0 0 0 0 0 0 0 0 0 0 0 0 0 0 0 0 0 0 0 0 0 0
0 0 0 0 0 0 0 0 0 0 0 0 0 0 0 0 1 2 2 1 0 0 1 3 4 3 2 1 0 0 0 0 0 0 0 0 0 0 0 0 0 0 0 0 0 0 0 0 0
0 0 0 0 0 0 0 0 0 0 0 0 0 0 0 0 0 1 2 2 1 0 1 4 5 4 3 1 0 0 0 0 0 0 0 0 0 0 0 0 0 0 0 0 0 0 0 0 0
0 0 0 0 0 0 0 0 0 0 0 0 0 0 0 0 0 0 1 2 2 1 1 3 5 6 5 3 1 0 0 0 0 0 0 0 0 0 0 0 0 0 0 0 0 0 0 0 0
0 0 0 0 0 0 0 0 0 0 0 0 0 0 0 0 0 0 1 2 3 2 1 2 5 6 6 5 2 1 0 0 0 0 0 0 0 0 0 0 0 0 0 0 0 0 0 0 0
0 0 0 0 0 0 0 0 0 0 0 0 0 0 0 0 0 0 0 1 2 3 2 1 3 5 6 4 3 1 0 0 0 0 0 0 0 0 0 0 0 0 0 0 0 0 0 0 0
0 0 0 0 0 0 0 0 0 0 0 0 0 0 0 0 0 0 0 0 1 3 3 1 1 4 5 4 3 1 0 0 0 0 0 0 0 0 0 0 0 0 0 0 0 0 0 0 0
0 0 0 0 0 0 0 0 0 0 0 0 0 0 0 0 0 0 0 0 1 3 3 1 1 3 5 5 3 1 0 0 0 0 0 0 0 0 0 0 0 0 0 0 0 0 0 0 0
0 0 0 0 0 0 0 0 0 0 0 0 0 0 0 0 0 0 0 1 2 3 3 2 1 3 5 5 3 1 0 0 0 0 0 0 0 0 0 0 0 0 0 0 0 0 0 0 0
0 0 0 0 0 0 0 0 0 0 0 0 0 0 0 0 0 0 1 2 3 3 3 3 3 3 4 5 4 1 0 0 0 0 0 0 0 0 0 0 0 0 0 0 0 0 0 0 0
0 0 0 0 0 0 0 0 0 0 0 0 0 0 0 0 0 0 1 3 4 3 3 4 3 3 4 5 4 2 0 0 0 0 0 0 0 0 0 0 0 0 0 0 0 0 0 0 0
0 0 0 0 0 0 0 0 0 0 0 0 0 0 0 0 0 1 2 3 4 4 4 4 4 3 4 4 4 2 1 0 0 0 0 0 0 0 0 0 0 0 0 0 0 0 0 0 0
Wind_Speed
5 3 2 3 6 6 3 1 1 3 4 5 8 10 8 5 4 5 1 6 8 6 5 6 8 9 9 9 9 9 10 10 10 10 10 9 9 9 9 9 9 9 9 9 8 8 8 8 8
2 1 3 5 6 4 1 0 3 4 6 7 8 7 7 5 4 5 3 5 8 7 5 6 9 9 9 9 9 9 9 9 9 9 9 9 9 9 9 9 9 9 8 8 8 7 7 7 7
2 0 4 5 4 4 2 1 3 4 5 5 5 5 5 4 4 3 5 8 8 6 5 6 10 9 9 9 8 9 9 9 9 8 8 8 8 8 8 8 8 8 8 7 7 7 7 6 6
2 4 5 5 4 2 4 3 3 4 5 5 6 6 4 3 3 5 8 9 8 6 5 6 10 10 9 9 8 8 8 8 8 8 8 8 8 8 8 8 8 7 7 7 7 7 7 7 7
3 5 6 4 2 1 2 3 4 5 4 5 7 6 3 2 6 8 9 9 8 6 5 6 9 9 9 9 8 8 8 7 8 8 8 7 8 8 8 8 8 7 7 7 7 7 7 7 8
4 4 5 3 2 2 1 3 6 7 6 6 7 6 3 2 6 7 8 8 8 7 5 5 9 9 9 8 8 8 7 7 7 7 7 7 7 7 8 7 7 7 7 7 7 6 7 7 9
4 4 2 3 3 2 2 3 5 5 5 4 6 6 3 3 5 7 7 8 7 6 5 4 4 5 7 8 7 7 7 7 7 7 6 6 6 6 7 7 7 7 7 7 7 7 7 8 9
4 4 2 1 2 1 1 2 4 5 4 4 5 7 5 5 5 6 6 6 6 5 5 5 4 3 3 3 6 6 7 7 6 6 6 6 6 6 6 6 7 7 7 7 7 7 7 8 9
4 5 2 2 3 2 2 3 2 4 5 4 3 5 7 9 7 6 5 3 4 5 4 5 4 3 3 2 4 4 5 5 5 4 5 4 2 2 3 5 6 6 7 7 6 7 7 8 9
4 3 2 3 4 4 2 3 4 4 5 4 5 5 8 8 8 7 6 5 5 5 5 5 5 4 3 3 2 1 1 2 1 1 2 2 2 1 2 4 6 6 6 5 5 5 6 6 4
3 3 2 1 3 4 2 1 2 7 3 5 9 10 9 7 7 7 7 6 6 6 6 5 5 5 4 2 2 1 1 1 1 2 2 2 2 2 2 1 2 3 4 3 3 3 3 3 3
2 1 3 2 2 2 2 2 2 3 5 9 12 12 10 9 8 8 7 6 6 6 6 6 5 4 4 3 2 2 1 1 1 2 3 2 2 2 2 1 1 1 1 2 2 2 3 4 4
1 1 1 1 2 3 4 3 2 2 4 9 10 10 10 9 7 6 7 7 6 6 6 6 6 5 4 3 2 2 2 2 2 2 3 3 3 2 2 1 1 1 1 2 2 2 3 4 4
3 1 1 1 1 2 4 1 2 3 5 8 10 9 9 9 9 6 6 6 7 7 7 5 6 5 4 3 3 2 2 2 2 2 3 4 3 3 3 2 2 2 2 2 2 3 4 4 4
1 1 2 1 2 2 4 2 2 5 6 7 8 8 8 7 7 8 8 8 8 7 6 6 7 6 5 4 4 3 3 3 2 2 3 4 4 4 3 3 2 2 2 3 3 4 4 4 4
2 2 1 3 2 3 5 2 5 3 6 6 6 6 6 6 7 6 7 7 7 7 6 6 6 6 5 4 4 3 3 3 2 2 2 4 4 4 4 3 3 3 3 3 3 3 4 4 4
2 1 3 3 2 2 4 3 4 3 6 5 6 5 6 6 5 5 7 7 7 7 6 5 5 6 5 4 4 3 3 3 2 2 2 3 4 4 4 3 2 3 3 3 4 3 3 3 3
3 2 2 3 3 2 3 3 3 3 5 6 5 5 5 6 7 7 7 7 7 6 6 6 5 5 4 3 3 3 3 2 2 2 3 3 3 4 4 3 3 3 3 3 3 4 3 3 3
3 2 2 4 3 2 3 3 5 4 4 4 4 5 5 6 6 6 7 6 6 5 5 6 6 4 4 3 3 3 2 1 1 2 3 3 4 4 4 4 3 3 3 3 4 3 4 2 3
2 1 2 3 2 2 3 4 5 4 6 6 6 6 6 5 4 6 6 6 6 6 6 6 6 5 5 4 3 3 3 1 1 1 2 3 3 4 5 5 3 3 4 4 4 3 3 1 1
2 3 3 3 3 1 1 3 3 3 3 3 4 6 7 8 8 8 7 7 6 7 8 7 7 6 5 5 3 3 3 2 2 1 1 1 2 3 4 5 4 4 4 4 3 3 4 2 0
3 3 2 2 1 2 1 2 5 4 3 3 4 4 6 6 7 8 8 8 8 8 7 8 7 6 6 6 6 6 4 3 2 2 1 1 2 3 3 4 5 4 3 4 3 3 2 3 1
4 2 1 1 1 2 1 2 6 2 4 6 6 5 6 7 7 8 9 10 8 7 7 7 7 6 6 6 7 7 4 3 2 1 2 1 1 2 3 4 4 4 3 3 3 3 2 2 2
1 3 4 3 3 3 4 4 5 4 7 6 5 5 6 6 7 6 6 6 6 6 6 6 7 6 6 6 6 7 7 5 4 3 3 2 1 1 2 3 3 4 3 4 3 3 3 2 2
4 5 3 4 2 5 2 2 6 6 6 6 6 5 5 5 5 5 6 6 6 6 7 6 7 6 6 7 6 7 7 7 6 5 4 3 2 1 2 3 3 3 3 3 3 3 3 2 2
1 6 5 3 4 4 2 3 5 4 3 2 3 3 4 5 5 6 7 7 6 7 8 7 8 7 7 7 7 6 6 5 4 4 4 4 3 3 3 3 3 3 4 4 3 3 2 2 2
1 2 4 4 1 2 3 3 4 3 3 2 2 1 2 4 5 6 6 6 6 6 8 9 8 7 7 7 6 5 5 5 5 4 4 3 3 3 3 4 3 3 3 4 4 2 2 3 2
2 3 4 3 2 3 3 3 3 2 2 2 1 1 2 3 4 5 5 5 5 6 6 8 8 8 7 7 6 6 6 6 5 4 4 4 4 4 4 4 4 3 3 4 4 3 2 3 2
2 2 3 2 3 3 3 5 4 5 4 3 3 3 3 3 4 5 4 4 4 4 5 7 7 6 6 7 6 5 5 5 5 5 5 4 4 4 4 5 5 4 4 4 4 3 3 3 2
4 3 4 2 2 2 2 7 4 4 3 2 2 2 2 3 4 4 4 4 4 4 5 6 6 6 6 6 6 6 5 5 5 5 4 4 4 4 4 4 4 4 4 4 4 4 4 4 3
Wind_Direction
308 314 96 65 55 54 62 13 105 53 59 64 79 85 83 65 87 127 176 124 124 128 128 121 117 112 110 107 103 103 102 99 98 97 95 94 93 92 92 93 93 93 94 92 88 86 80 76 75
323 337 71 60 78 74 19 289 87 88 127 119 86 84 80 73 84 111 120 133 129 129 129 123 118 115 113 110 107 106 107 105 102 100 99 97 96 94 93 94 94 93 92 90 88 87 83 80 77
305 79 75 69 88 131 149 186 111 89 99 101 85 62 77 103 107 125 144 139 130 127 129 129 123 120 117 114 110 109 108 108 106 104 102 98 97 98 96 95 95 94 92 89 89 88 85 81 78
56 46 56 75 94 145 156 173 129 93 65 64 96 70 59 80 124 136 135 133 128 128 128 131 127 124 121 118 114 114 112 112 110 109 107 103 100 97 96 97 95 95 97 95 94 91 85 80 77
69 69 63 67 87 103 134 133 107 97 83 81 92 93 76 59 112 123 127 128 131 137 139 137 130 127 124 122 121 121 118 116 114 112 112 107 103 101 100 97 94 95 100 100 97 94 88 81 78
57 67 81 93 95 91 85 103 97 94 106 106 103 107 112 130 122 128 133 138 144 146 145 140 137 133 132 129 130 131 127 122 120 120 118 115 110 105 100 99 97 98 101 104 102 96 91 84 79
97 85 110 132 112 85 113 100 100 110 111 124 124 105 130 162 151 143 140 145 148 144 139 135 139 137 137 136 136 136 133 130 127 125 123 121 116 110 107 103 101 101 102 104 104 98 91 84 83
124 98 80 107 120 156 186 107 116 116 110 114 113 131 165 193 164 140 137 142 146 147 145 147 145 141 147 146 144 142 142 140 134 128 122 114 107 104 109 107 104 103 102 103 102 96 86 81 82
95 78 111 172 155 181 157 94 80 79 90 72 86 140 163 162 144 127 122 125 141 146 151 154 156 155 161 170 159 148 146 146 140 133 127 103 80 79 94 115 113 107 104 102 97 91 84 77 77
88 106 198 192 163 159 124 121 136 94 84 78 79 106 141 149 144 144 150 157 154 157 168 166 169 169 174 169 137 130 139 135 132 134 128 112 110 101 101 106 112 110 102 92 85 81 74 67 64
122 155 168 131 148 135 113 103 119 124 130 165 157 157 159 159 157 161 165 164 168 168 166 167 169 172 171 161 152 152 131 134 148 151 143 129 110 96 80 75 83 76 76 56 57 56 56 70 76
110 161 143 141 130 119 120 105 77 135 179 177 165 162 165 166 169 168 169 169 165 160 163 164 166 167 172 162 163 161 151 149 148 156 150 135 124 115 105 98 90 72 65 65 57 62 73 75 78
113 144 132 140 108 117 94 90 121 163 163 154 156 160 167 171 173 175 168 167 163 161 165 165 165 164 163 153 163 152 157 155 156 148 151 144 135 135 123 115 99 89 87 92 86 82 85 82 80
191 174 253 166 142 130 108 88 104 200 157 150 159 172 178 177 173 172 165 162 165 167 170 166 163 163 155 152 150 148 148 149 134 136 152 146 140 137 124 115 101 96 96 92 95 97 94 89 84
145 69 326 262 204 187 109 15 216 202 155 155 168 174 174 180 173 176 176 170 170 169 166 168 165 161 153 149 154 143 138 132 124 134 136 138 140 136 128 119 110 111 100 90 83 84 82 82 78
42 53 283 274 194 199 124 229 257 206 154 162 174 176 169 175 177 182 171 163 165 162 161 168 163 155 151 148 146 141 132 127 128 127 124 130 134 134 125 116 110 108 97 93 94 88 81 75 75
19 212 238 281 235 175 145 210 246 192 155 170 180 186 182 171 173 179 169 160 162 163 157 154 150 151 148 143 132 130 124 122 126 118 112 118 121 126 124 116 115 110 101 101 108 90 98 94 85
226 216 227 233 253 138 157 218 237 216 174 188 187 186 185 177 186 180 169 164 160 160 152 149 146 144 137 127 111 98 92 98 101 115 123 124 125 123 119 119 119 116 106 96 98 100 90 98 106
207 198 238 242 237 149 186 219 237 225 196 198 199 195 192 193 189 174 169 161 153 151 150 151 149 150 139 133 130 127 132 131 108 122 126 122 124 124 125 127 123 121 121 121 117 107 96 88 103
214 213 252 276 258 196 210 242 239 225 208 201 195 194 191 185 173 172 168 161 163 166 163 163 162 159 156 157 158 154 148 143 139 119 106 114 127 136 136 132 130 127 118 110 110 113 111 110 117
245 210 224 250 316 359 81 312 277 265 238 214 194 190 187 182 180 179 173 172 169 173 173 174 176 167 164 154 130 107 83 65 56 68 93 113 135 137 130 137 134 132 129 134 136 134 132 141 117
250 245 209 212 88 277 158 271 274 250 268 238 211 190 189 189 181 179 176 177 181 185 178 172 174 172 171 155 145 144 142 151 184 183 167 135 121 129 134 135 133 137 138 143 153 146 140 135 146
222 232 202 214 177 293 269 199 275 249 242 246 230 206 193 190 182 183 184 184 184 180 175 170 169 170 169 159 154 148 147 159 155 144 138 134 110 131 135 133 132 136 141 147 144 136 137 136 149
171 45 21 34 79 270 236 183 265 232 223 233 229 206 188 189 187 181 178 175 176 174 170 165 165 170 167 160 158 157 159 157 148 154 159 163 143 143 143 139 136 146 151 159 154 146 141 140 131
61 79 26 355 358 257 243 175 247 239 223 211 204 198 187 179 171 166 166 173 176 173 170 165 166 170 169 164 169 172 168 167 170 173 176 169 161 169 178 158 152 154 162 161 147 140 143 139 131
202 139 158 203 231 278 328 225 254 256 210 187 177 185 182 177 173 174 176 177 178 177 173 170 171 171 170 171 180 179 170 170 176 178 176 179 186 187 181 169 167 169 163 156 144 136 150 140 136
136 185 179 154 229 254 263 268 310 360 33 43 51 86 184 189 181 179 176 176 177 176 178 176 172 173 175 177 177 180 177 175 177 177 174 178 186 182 179 171 170 171 164 154 146 141 144 131 132
129 145 80 112 176 249 271 242 233 253 289 296 249 237 236 209 189 178 172 176 182 179 178 170 170 173 177 180 181 177 181 182 174 166 172 179 185 182 174 175 168 170 167 158 145 139 136 124 124
47 64 94 127 166 175 247 263 224 203 216 226 230 228 221 202 188 182 177 171 168 160 164 166 170 170 176 180 178 172 176 173 165 168 179 182 183 179 181 183 172 173 172 161 148 149 145 138 132
163 168 138 154 249 194 206 265 274 205 213 225 262 264 244 201 184 169 160 149 150 159 162 167 169 171 180 177 169 169 172 169 168 176 183 178 181 184 183 177 167 170 168 163 157 159 159 154 156